PGT689 EDDN-EDDF

Flight info

Callsign PGT689
Flight time N/A
Altitude 11000
Route INPUD T153 SPESA
Aircraft A20N/M-SDE3FGRWY/S

Departure

Time 2026-04-28 14:42
Airport Nuremberg Airport (EDDN)

Arrival

Time N/A
Airport Frankfurt Main Airport (EDDF)
Time Latitude Longitude Altitude Speed Heading
2026-04-28 14:12 49.49580 11.08275 1034 ft 0 kts 187°
2026-04-28 14:30 49.49591 11.08277 1034 ft 3 kts 187°
2026-04-28 14:30 49.49605 11.08285 1034 ft 2 kts 243°
2026-04-28 14:31 49.49606 11.08310 1034 ft 2 kts 285°
2026-04-28 14:31 49.49605 11.08313 1034 ft 0 kts 276°
2026-04-28 14:32 49.49605 11.08312 1034 ft 0 kts 276°
2026-04-28 14:32 49.49606 11.08295 1034 ft 3 kts 275°
2026-04-28 14:32 49.49611 11.08241 1034 ft 7 kts 277°
2026-04-28 14:33 49.49619 11.08154 1035 ft 10 kts 280°
2026-04-28 14:33 49.49624 11.08111 1035 ft 12 kts 280°
2026-04-28 14:33 49.49632 11.08035 1035 ft 16 kts 278°
2026-04-28 14:33 49.49651 11.07833 1033 ft 18 kts 278°
2026-04-28 14:34 49.49696 11.07643 1035 ft 12 kts 274°
2026-04-28 14:34 49.49711 11.07472 1032 ft 21 kts 278°
2026-04-28 14:34 49.49736 11.07207 1026 ft 29 kts 280°
2026-04-28 14:35 49.49762 11.06953 1020 ft 0 kts 277°
2026-04-28 14:35 49.49763 11.06947 1024 ft 3 kts 277°
2026-04-28 14:36 49.49769 11.06867 1023 ft 12 kts 277°
2026-04-28 14:36 49.49784 11.06689 1020 ft 21 kts 277°
2026-04-28 14:36 49.49805 11.06435 1022 ft 27 kts 277°
2026-04-28 14:36 49.49836 11.06134 1023 ft 27 kts 288°
2026-04-28 14:37 49.49874 11.05995 1023 ft 5 kts 319°
2026-04-28 14:37 49.49906 11.05972 1025 ft 8 kts 340°
2026-04-28 14:37 49.49949 11.05947 1023 ft 0 kts 337°
2026-04-28 14:37 49.49954 11.05943 1023 ft 0 kts 335°
2026-04-28 14:39 49.49985 11.05932 1022 ft 8 kts 356°
2026-04-28 14:39 49.50033 11.05972 1022 ft 7 kts 56°
2026-04-28 14:39 49.50043 11.06030 1022 ft 4 kts 92°
2026-04-28 14:40 49.50042 11.06050 1023 ft 0 kts 96°
2026-04-28 14:41 49.50016 11.06322 1021 ft 72 kts 98°
2026-04-28 14:41 49.49892 11.07605 1036 ft 165 kts 102°
2026-04-28 14:42 49.49700 11.09437 1868 ft 177 kts 95°
2026-04-28 14:42 49.49555 11.11371 2977 ft 187 kts 93°
2026-04-28 14:42 49.49480 11.13454 3908 ft 201 kts 90°
2026-04-28 14:42 49.49454 11.15492 4370 ft 169 kts 89°
2026-04-28 14:43 49.49452 11.17071 4535 ft 132 kts 87°
2026-04-28 14:43 49.49486 11.18415 4566 ft 140 kts 85°
2026-04-28 14:43 49.49598 11.20140 4968 ft 180 kts 81°
2026-04-28 14:43 49.49807 11.22189 5444 ft 207 kts 78°
2026-04-28 14:44 49.50127 11.24462 5999 ft 227 kts 76°
2026-04-28 14:44 49.50562 11.26883 6621 ft 242 kts 72°
2026-04-28 14:44 49.51085 11.29246 7123 ft 210 kts 70°
2026-04-28 14:44 49.51594 11.31080 7405 ft 166 kts 64°
2026-04-28 14:45 49.52101 11.32471 7506 ft 134 kts 58°
2026-04-28 14:45 49.52660 11.33546 7441 ft 141 kts 47°
2026-04-28 14:45 49.53356 11.34362 8468 ft 118 kts 31°
2026-04-28 14:45 49.54342 11.35116 8192 ft 201 kts 26°
2026-04-28 14:46 49.55825 11.36122 7750 ft 262 kts 25°
2026-04-28 14:46 49.57667 11.37263 7271 ft 306 kts 23°
2026-04-28 14:46 49.59768 11.38467 6718 ft 337 kts 21°
2026-04-28 14:46 49.61905 11.39594 6079 ft 304 kts 21°
2026-04-28 14:47 49.63819 11.40499 5468 ft 274 kts 18°
2026-04-28 14:47 49.65590 11.41235 4923 ft 253 kts 17°
2026-04-28 14:47 49.67233 11.41831 4629 ft 228 kts 15°
2026-04-28 14:47 49.68703 11.42273 4680 ft 206 kts 14°
2026-04-28 14:48 49.70066 11.42597 4690 ft 191 kts 12°
2026-04-28 14:48 49.71358 11.42827 4701 ft 199 kts
2026-04-28 14:48 49.72948 11.43010 4843 ft 256 kts
2026-04-28 14:48 49.74840 11.42574 4999 ft 282 kts 347°
2026-04-28 14:49 49.76593 11.41318 5099 ft 276 kts 330°
2026-04-28 14:49 49.78011 11.39339 5206 ft 274 kts 313°
2026-04-28 14:49 49.78970 11.36816 5313 ft 273 kts 294°
2026-04-28 14:49 49.79384 11.33965 5414 ft 272 kts 275°
2026-04-28 14:50 49.79313 11.31074 5511 ft 267 kts 266°
2026-04-28 14:50 49.79131 11.28235 5654 ft 263 kts 264°
2026-04-28 14:50 49.78866 11.25338 6140 ft 289 kts 263°
2026-04-28 14:50 49.78617 11.22174 7102 ft 302 kts 265°
2026-04-28 14:51 49.78452 11.18873 8073 ft 313 kts 267°
2026-04-28 14:51 49.78384 11.15448 9111 ft 323 kts 270°
2026-04-28 14:51 49.78429 11.11936 10151 ft 330 kts 272°
2026-04-28 14:51 49.78604 11.08322 11145 ft 335 kts 277°
2026-04-28 14:52 49.79044 11.04819 12115 ft 337 kts 285°
2026-04-28 14:52 49.79694 11.01339 13170 ft 336 kts 285°
2026-04-28 14:52 49.80206 10.97834 13891 ft 325 kts 283°
2026-04-28 14:52 49.80666 10.94624 14040 ft 289 kts 283°
2026-04-28 14:53 49.81088 10.91748 14062 ft 262 kts 284°
2026-04-28 14:53 49.81492 10.89092 13913 ft 246 kts 284°
2026-04-28 14:53 49.81891 10.86569 13606 ft 240 kts 285°
2026-04-28 14:53 49.82308 10.84037 13281 ft 242 kts 285°
2026-04-28 14:54 49.82738 10.81521 12955 ft 241 kts 286°
2026-04-28 14:54 49.83175 10.79025 12649 ft 239 kts 284°
2026-04-28 14:54 49.83383 10.76511 12487 ft 233 kts 271°
2026-04-28 14:54 49.83226 10.74047 12308 ft 228 kts 259°
2026-04-28 14:55 49.82869 10.71665 12062 ft 225 kts 257°
2026-04-28 14:55 49.82454 10.69358 11928 ft 219 kts 255°
2026-04-28 14:55 49.81980 10.67129 11766 ft 228 kts 251°
2026-04-28 14:55 49.81345 10.64505 11552 ft 293 kts 250°
2026-04-28 14:56 49.80485 10.61272 11352 ft 353 kts 247°
2026-04-28 14:56 49.79411 10.57535 11142 ft 405 kts 246°
2026-04-28 14:56 49.78213 10.53683 13027 ft 378 kts 246°
2026-04-28 14:56 49.77079 10.50103 12614 ft 366 kts 245°
2026-04-28 14:57 49.75947 10.46633 12095 ft 356 kts 246°
2026-04-28 14:57 49.75337 10.44306 11783 ft 350 kts 251°
2026-04-28 14:57 49.74522 10.39534 11172 ft 337 kts 261°
2026-04-28 14:57 49.74276 10.35991 10821 ft 326 kts 268°
2026-04-28 14:58 49.74267 10.32587 10863 ft 303 kts 271°
2026-04-28 14:58 49.74333 10.29485 11121 ft 275 kts 273°
2026-04-28 14:58 49.74445 10.26661 11129 ft 259 kts 274°
2026-04-28 14:58 49.74578 10.23951 11050 ft 247 kts 275°
2026-04-28 14:59 49.74731 10.21359 10966 ft 237 kts 276°
2026-04-28 14:59 49.74906 10.18880 10853 ft 228 kts 277°
2026-04-28 14:59 49.75104 10.16493 10727 ft 220 kts 278°
2026-04-28 14:59 49.75329 10.14183 10598 ft 219 kts 279°
2026-04-28 15:00 49.75626 10.11556 10656 ft 276 kts 281°
2026-04-28 15:00 49.76032 10.08362 10799 ft 328 kts 282°
2026-04-28 15:00 49.76549 10.04666 10963 ft 374 kts 283°
2026-04-28 15:00 49.77172 10.00540 11141 ft 413 kts 284°
2026-04-28 15:01 49.77818 9.96489 13776 ft 361 kts 284°
2026-04-28 15:01 49.78423 9.92803 14455 ft 344 kts 285°
2026-04-28 15:01 49.79019 9.89317 14368 ft 326 kts 285°
2026-04-28 15:01 49.79605 9.86027 14305 ft 309 kts 286°
2026-04-28 15:02 49.79989 9.83947 14262 ft 298 kts 286°
2026-04-28 15:02 49.80560 9.80935 14023 ft 290 kts 287°
2026-04-28 15:02 49.81101 9.77878 13087 ft 304 kts 284°
2026-04-28 15:02 49.81582 9.74594 12123 ft 318 kts 282°
2026-04-28 15:03 49.81986 9.71185 11430 ft 322 kts 279°
2026-04-28 15:03 49.82320 9.67859 11368 ft 304 kts 278°
2026-04-28 15:03 49.82595 9.64704 11301 ft 288 kts 277°
2026-04-28 15:03 49.82874 9.60767 11244 ft 268 kts 276°
2026-04-28 15:04 49.82980 9.58865 11223 ft 258 kts 275°
2026-04-28 15:04 49.83096 9.56163 11197 ft 244 kts 273°
2026-04-28 15:04 49.83160 9.53610 11167 ft 231 kts 271°
2026-04-28 15:04 49.83173 9.51186 11127 ft 219 kts 269°
2026-04-28 15:05 49.83133 9.48913 11141 ft 203 kts 267°
2026-04-28 15:05 49.83035 9.46805 11120 ft 189 kts 264°
2026-04-28 15:05 49.82874 9.44859 11081 ft 174 kts 260°
2026-04-28 15:05 49.82676 9.43023 11083 ft 184 kts 266°
2026-04-28 15:06 49.82567 9.40802 11098 ft 241 kts 265°
2026-04-28 15:06 49.82373 9.37971 11237 ft 292 kts 263°
2026-04-28 15:06 49.82083 9.34550 11246 ft 345 kts 262°
2026-04-28 15:06 49.81685 9.30621 11147 ft 392 kts 260°
2026-04-28 15:07 49.81149 9.26520 12529 ft 360 kts 256°
2026-04-28 15:07 49.80596 9.23006 12882 ft 333 kts 259°
2026-04-28 15:07 49.80409 9.19356 11457 ft 355 kts 271°
2026-04-28 15:07 49.80712 9.15437 10374 ft 365 kts 284°
2026-04-28 15:08 49.81372 9.11963 10997 ft 320 kts 287°
2026-04-28 15:08 49.82026 9.08859 11291 ft 290 kts 289°
2026-04-28 15:08 49.82595 9.05878 10809 ft 290 kts 284°
2026-04-28 15:08 49.83109 9.02873 10459 ft 286 kts 284°
2026-04-28 15:09 49.83620 8.99913 10095 ft 283 kts 285°
2026-04-28 15:09 49.84131 8.96979 9681 ft 281 kts 285°
2026-04-28 15:09 49.84641 8.94072 9274 ft 279 kts 285°
2026-04-28 15:09 49.85151 8.91183 8859 ft 277 kts 285°
2026-04-28 15:10 49.85654 8.88351 8607 ft 269 kts 286°
2026-04-28 15:10 49.86148 8.85595 8401 ft 262 kts 286°
2026-04-28 15:10 49.86632 8.82908 8193 ft 254 kts 287°
2026-04-28 15:10 49.87106 8.80348 8088 ft 242 kts 288°
2026-04-28 15:11 49.87568 8.77884 7977 ft 234 kts 289°
2026-04-28 15:11 49.88027 8.75508 7843 ft 227 kts 289°
2026-04-28 15:11 49.88473 8.73196 7720 ft 218 kts 288°
2026-04-28 15:11 49.88851 8.71014 7747 ft 202 kts 276°
2026-04-28 15:12 49.88594 8.68993 7671 ft 187 kts 241°
2026-04-28 15:12 49.88156 8.66978 6881 ft 227 kts 272°
2026-04-28 15:12 49.87900 8.64531 7455 ft 255 kts 247°
2026-04-28 15:12 49.87227 8.61608 7459 ft 319 kts 255°
2026-04-28 15:13 49.86782 8.57946 7628 ft 370 kts 261°